[[{"header":{"parameterUnit":"m.s-1","parameterCategory":1,"la1":30.2991,"la2":30.254,"lo1":-89.0895,"lo2":-89.0444,"dy":0.0017,"dx":0.0017,"nx":28,"ny":28,"refTime":"2025-05-26T03:00:00:Z","depth":0,"parameterNumber":2,"parameterNumberName":"U-component_of_WINDS"},"data":[0,0,0,0,0,0,0,0,0,0,0,0,0,0,0,0,0,0,0,0,0,0,0,0,0,0,0,0,0,0,0,0,0,0,0,0,0,0,0,0,0,0,0,0,0,0,0,0,0,0,0,0,0,0,0,0,0,0,0.9223,0.9224,0,0.9301,0.9302,0.9303,0.9351,0.9351,0.9352,0.9352,0.9433,0.9435,0.9437,0,0,0,0,0,0,0,0,0,0,0,0,0,0.9117,0.9119,0.9223,0.9224,0.9225,0.9301,0.9302,0.9303,0.9351,0.9351,0.9352,0.9352,0.9432,0.9435,0.9437,0,0,0,0,0,0,0,0,0,0,0,0,0,0.9176,0.9119,0.9223,0.9258,0.9262,0.9301,0.9302,0.9303,0.9351,0.9351,0.9352,0.9352,0.9432,0.9435,0.9437,0.9448,0,0,0.9446,0.9447,0,0,0,0,0,0,0,0,0.9172,0.918,0.9252,0.9256,0.926,0.9317,0.9294,0.9352,0.9351,0.9317,0.9352,0.9352,0.9394,0.94,0.9414,0.9452,0.9455,0.9446,0.9448,0.9449,0.945,0,0,0,0,0,0,0,0.9168,0.9177,0.9254,0.9253,0.9258,0.927,0.9279,0.9306,0.9353,0.932,0.9324,0.9332,0.9397,0.9411,0.9416,0.9456,0.9446,0.9449,0.9451,0.9452,0.9506,0.9506,0,0,0,0,0,0,0.9158,0.9173,0.9251,0.9256,0.9216,0.9272,0.9282,0.9298,0.9352,0.9361,0.9332,0.9334,0.9406,0.9413,0.9419,0.9435,0.9449,0.9452,0.9454,0.9507,0.9506,0.9506,0,0,0,0,0,0,0.9156,0.9165,0.9248,0.9216,0.9227,0.9273,0.9291,0.9299,0.9314,0.9361,0.937,0.9338,0.9407,0.9415,0.944,0.9439,0.9453,0.9456,0.9507,0.9507,0.9506,0.9466,0,0,0,0,0,0,0.9153,0.9164,0.9168,0.9215,0.9229,0.9267,0.9291,0.9301,0.9319,0.9323,0.9369,0.9378,0.9408,0.9436,0.9443,0.9443,0.9458,0.9507,0.9507,0.9506,0.9468,0.9465,0.9462,0,0,0,0,0,0.9149,0.9154,0.9168,0.9177,0.9235,0.9267,0.9275,0.9309,0.9318,0.9323,0.9354,0.9376,0.9437,0.9438,0.9447,0.9447,0.9508,0.9507,0.9506,0.9469,0.9465,0.9462,0,0,0,0,0,0,0.9105,0.9161,0.9177,0.9197,0.9227,0.9275,0.9282,0.9303,0.9331,0.9334,0.9375,0.9385,0.9406,0.9429,0.9429,0.946,0.9475,0.9476,0.9444,0.9441,0.9437,0.9431,0.9461,0,0,0,0,0,0.9098,0.9119,0.9167,0.918,0.9194,0.9235,0.9251,0.9274,0.9307,0.932,0.9352,0.9384,0.941,0.9427,0.9454,0.9472,0.9483,0.9476,0.9473,0.947,0.9471,0.9482,0.948,0.9504,0.9504,0.9504,0,0,0.9083,0.9116,0.9127,0.9172,0.9198,0.922,0.9246,0.9268,0.9284,0.9324,0.9349,0.9374,0.9412,0.9433,0.9444,0.9453,0.9467,0.9469,0.9467,0.9469,0.9481,0.9479,0.9477,0.9503,0.9503,0.9504,0,0,0.9068,0.9095,0.9109,0.9134,0.9173,0.92,0.9203,0.9248,0.9266,0.9292,0.9322,0.9343,0.9387,0.9413,0.9432,0.9426,0.9448,0.9434,0.9417,0.9427,0.9426,0.9424,0.9422,0.9421,0.9434,0.9434,0.9434,0,0.9045,0.9078,0.9114,0.9133,0.9152,0.9189,0.9204,0.9227,0.9272,0.9285,0.9294,0.9351,0.9379,0.9407,0.9405,0.9419,0.9424,0.9428,0.9423,0.9422,0.9421,0.9419,0.9418,0.9432,0.9432,0.9432,0.9432,0,0.9048,0.907,0.9077,0.912,0.914,0.9157,0.9196,0.9212,0.9233,0.926,0.9286,0.9321,0.9355,0.9364,0.9385,0.9395,0.9399,0.9415,0.9431,0.9416,0.9415,0.9415,0.9429,0.943,0.943,0.9431,0,0,0.9007,0.9069,0.9071,0.909,0.9136,0.9154,0.9173,0.9207,0.9219,0.925,0.9267,0.9304,0.9319,0.934,0.9365,0.9374,0.9367,0.9389,0.9391,0.9384,0.938,0.9367,0.9366,0.9382,0.9382,0.9382,0.9377,0,0.8998,0.9033,0.9066,0.909,0.9111,0.9146,0.9163,0.9193,0.9218,0.924,0.9268,0.9294,0.9311,0.9325,0.9335,0.9366,0.9367,0.9367,0.9399,0.9399,0.9388,0.9366,0.9353,0.9346,0.9377,0.9377,0.9377,0,0.8992,0.902,0.9046,0.9089,0.9099,0.9114,0.9147,0.9168,0.9202,0.922,0.9243,0.927,0.9292,0.9305,0.9337,0.9336,0.9351,0.9368,0.9369,0.9373,0.9387,0.9369,0.9345,0.9344,0.9376,0.9376,0.9377,0,0.8959,0.9004,0.9025,0.9041,0.9092,0.9101,0.9123,0.9158,0.9176,0.9205,0.9217,0.9249,0.9266,0.929,0.9324,0.9331,0.9352,0.9368,0.9368,0.9367,0.937,0.937,0.9348,0.938,0.938,0.938,0.938,0,0.8946,0.896,0.9011,0.9024,0.9041,0.9079,0.9095,0.912,0.9151,0.917,0.9202,0.9219,0.9263,0.9286,0.9313,0.9334,0.9342,0.9357,0.9364,0.9354,0.9352,0.9365,0.9366,0.938,0.938,0.938,0.938,0,0.8912,0.8947,0.8972,0.9018,0.903,0.9041,0.9081,0.9095,0.9122,0.9145,0.9153,0.9195,0.9224,0.926,0.93,0.9318,0.9337,0.9347,0.9325,0.9329,0.9326,0.9325,0.9311,0.9311,0.9343,0.9343,0.9342,0,0.8901,0.8913,0.896,0.8975,0.8995,0.9019,0.9037,0.9075,0.9093,0.9133,0.9142,0.9173,0.9199,0.9242,0.9277,0.9308,0.932,0.9312,0.9324,0.9314,0.932,0.9318,0.932,0.9309,0.9309,0.9308,0.9308,0,0.8878,0.8895,0.8919,0.895,0.8971,0.8998,0.9025,0.9036,0.9079,0.9098,0.9126,0.9147,0.9187,0.9217,0.9252,0.9275,0.9299,0.9304,0.9305,0.9295,0.9281,0.9289,0.9316,0.9304,0.9304,0.9305,0.9305,0.9305,0.8856,0.8868,0.8903,0.8929,0.8954,0.8979,0.8995,0.9024,0.9048,0.9083,0.9104,0.9132,0.9167,0.9217,0.9239,0.9262,0.9271,0.9273,0.9273,0.9273,0.927,0.9278,0.9268,0.9268,0.9268,0.9269,0.9269,0,0.8834,0.8858,0.8882,0.892,0.8941,0.8961,0.8993,0.9009,0.9033,0.9063,0.9089,0.9122,0.9151,0.9188,0.922,0.9231,0.9242,0.9238,0.9237,0.9242,0.926,0.9256,0.9228,0.9228,0.9228,0.9228,0.9228,0.9228,0.8825,0.8847,0.8867,0.8901,0.8926,0.8953,0.897,0.8993,0.9017,0.9053,0.9077,0.9101,0.9134,0.9168,0.9196,0.9206,0.9216,0.9208,0.9222,0.9238,0.9241,0.9245,0.9241,0.921,0.921,0.9203,0.9202,0.9202]},{"header":{"parameterUnit":"m.s-1","parameterCategory":1,"la1":30.2991,"la2":30.254,"lo1":-89.0895,"lo2":-89.0444,"dy":0.0017,"dx":0.0017,"nx":28,"ny":28,"refTime":"2025-05-26T03:00:00:Z","depth":0,"parameterNumber":3,"parameterNumberName":"V-component_of_WINDS"},"data":[0,0,0,0,0,0,0,0,0,0,0,0,0,0,0,0,0,0,0,0,0,0,0,0,0,0,0,0,0,0,0,0,0,0,0,0,0,0,0,0,0,0,0,0,0,0,0,0,0,0,0,0,0,0,0,0,0,0,2.5011,2.5011,0,2.4999,2.4999,2.4998,2.4998,2.4998,2.4998,2.4999,2.4983,2.4983,2.4982,0,0,0,0,0,0,0,0,0,0,0,0,0,2.5033,2.5032,2.5011,2.5011,2.5011,2.4999,2.4999,2.4998,2.4998,2.4998,2.4998,2.4999,2.4983,2.4983,2.4982,0,0,0,0,0,0,0,0,0,0,0,0,0,2.5022,2.5032,2.5011,2.5009,2.5009,2.4999,2.4999,2.4998,2.4998,2.4998,2.4998,2.4999,2.4984,2.4983,2.4982,2.4972,0,0,2.4979,2.4979,0,0,0,0,0,0,0,0,2.5023,2.5021,2.501,2.5009,2.5009,2.5,2.5,2.4989,2.4998,2.5002,2.4999,2.4999,2.4988,2.4987,2.4984,2.4971,2.497,2.4979,2.4979,2.4978,2.4978,0,0,0,0,0,0,0,2.5023,2.5022,2.5006,2.501,2.5009,2.5008,2.5007,2.4998,2.4994,2.5002,2.5002,2.5,2.4988,2.4985,2.4984,2.497,2.4979,2.4978,2.4978,2.4978,2.4948,2.4948,0,0,0,0,0,0,2.5025,2.5022,2.5007,2.5006,2.5017,2.5008,2.5006,2.5003,2.4994,2.4993,2.5,2.5,2.4986,2.4985,2.4983,2.4971,2.4978,2.4978,2.4977,2.4949,2.4948,2.4948,0,0,0,0,0,0,2.5025,2.5023,2.5007,2.5014,2.5012,2.5007,2.5003,2.5002,2.4999,2.4993,2.4992,2.4998,2.4987,2.4985,2.4975,2.4971,2.4977,2.4976,2.4949,2.4949,2.4948,2.4947,0,0,0,0,0,0,2.5026,2.5024,2.502,2.5014,2.5012,2.4999,2.5003,2.5002,2.4998,2.4998,2.499,2.4989,2.4987,2.4976,2.4974,2.497,2.4976,2.4949,2.4949,2.4948,2.4947,2.4946,2.4946,0,0,0,0,0,2.5027,2.502,2.502,2.5018,2.5007,2.4999,2.4998,2.4995,2.4998,2.4994,2.499,2.499,2.4972,2.4975,2.4973,2.4968,2.495,2.4949,2.4948,2.4947,2.4946,2.4946,0,0,0,0,0,0,2.5024,2.5019,2.5019,2.501,2.5005,2.4999,2.4994,2.4994,2.4988,2.4988,2.4985,2.4983,2.4974,2.497,2.4974,2.4958,2.4961,2.496,2.4961,2.496,2.4959,2.496,2.4975,0,0,0,0,0,2.5023,2.5018,2.5013,2.5005,2.5003,2.4999,2.4995,2.4994,2.4989,2.4986,2.4982,2.4976,2.4969,2.4964,2.4957,2.4947,2.4945,2.4942,2.4941,2.4941,2.494,2.4934,2.4933,2.4946,2.4946,2.4946,0,0,2.502,2.5016,2.5012,2.5004,2.5001,2.4995,2.4997,2.499,2.4986,2.4985,2.4976,2.4972,2.4965,2.4956,2.4951,2.4952,2.4936,2.494,2.494,2.4939,2.4933,2.4932,2.4931,2.4946,2.4946,2.4946,0,0,2.501,2.5007,2.5001,2.4997,2.4992,2.4989,2.4988,2.4982,2.498,2.4971,2.497,2.4964,2.4952,2.4948,2.4944,2.4933,2.4933,2.4931,2.4927,2.4922,2.4921,2.492,2.4916,2.4915,2.493,2.493,2.493,0,2.5007,2.4998,2.4997,2.4991,2.4987,2.4987,2.498,2.4977,2.4969,2.4966,2.4968,2.4953,2.4948,2.4937,2.4935,2.4932,2.493,2.4932,2.4921,2.492,2.4919,2.4916,2.4914,2.493,2.493,2.493,2.493,0,2.4994,2.4988,2.4983,2.4977,2.4973,2.4966,2.4963,2.4959,2.4959,2.4956,2.4947,2.4942,2.4934,2.4931,2.493,2.492,2.4921,2.4922,2.4924,2.4918,2.4914,2.4913,2.493,2.493,2.493,2.493,0,0,2.4982,2.4976,2.4974,2.4972,2.4966,2.4961,2.4954,2.4948,2.4944,2.4939,2.4933,2.4923,2.4924,2.492,2.4918,2.4913,2.4906,2.4915,2.4915,2.4913,2.4895,2.4894,2.4892,2.4906,2.4905,2.4905,2.4895,0,2.4972,2.4961,2.496,2.495,2.4945,2.4945,2.4939,2.4935,2.4932,2.4927,2.4924,2.4917,2.4919,2.4916,2.4912,2.4908,2.4902,2.4908,2.4899,2.4899,2.4901,2.4891,2.489,2.4881,2.4894,2.4894,2.4894,0,2.4959,2.4955,2.4945,2.494,2.4938,2.4933,2.4927,2.4922,2.4917,2.4915,2.4911,2.491,2.4902,2.4906,2.4895,2.49,2.4896,2.4894,2.4893,2.4892,2.4896,2.4889,2.4878,2.4876,2.4891,2.4892,2.4892,0,2.4952,2.4943,2.4936,2.4934,2.4928,2.4925,2.4922,2.4917,2.4914,2.4908,2.4906,2.4899,2.4896,2.4891,2.4888,2.489,2.4877,2.4881,2.4876,2.4876,2.4873,2.4873,2.486,2.487,2.487,2.487,2.487,0,2.4941,2.4935,2.4933,2.4928,2.4921,2.492,2.4913,2.491,2.4906,2.4901,2.49,2.4895,2.4892,2.4886,2.4884,2.4875,2.4874,2.4872,2.4871,2.4872,2.4872,2.4869,2.487,2.487,2.487,2.487,2.487,0,2.4931,2.493,2.4922,2.4918,2.4917,2.4912,2.4908,2.4903,2.4901,2.4895,2.4893,2.4889,2.4882,2.4879,2.4871,2.4869,2.486,2.486,2.4862,2.4862,2.4857,2.4857,2.4842,2.484,2.4851,2.4851,2.4851,0,2.4924,2.492,2.4916,2.4912,2.491,2.4905,2.4901,2.49,2.4896,2.4891,2.4887,2.488,2.4875,2.4864,2.486,2.4853,2.4853,2.4848,2.4852,2.4853,2.4853,2.4853,2.4853,2.4847,2.4847,2.4847,2.4847,0,2.4912,2.4912,2.4907,2.4903,2.4899,2.4895,2.4891,2.4888,2.4886,2.4882,2.4876,2.4872,2.4863,2.4857,2.485,2.4847,2.4846,2.4846,2.4845,2.4845,2.4847,2.4846,2.486,2.4846,2.4846,2.4846,2.4846,2.4847,2.4904,2.49,2.4896,2.4891,2.4889,2.4885,2.4881,2.4879,2.4874,2.4867,2.4867,2.486,2.4855,2.4846,2.4843,2.4837,2.4838,2.4836,2.4835,2.4835,2.4835,2.4848,2.4836,2.4836,2.4836,2.4836,2.4836,0,2.4892,2.489,2.4885,2.488,2.4876,2.4877,2.4873,2.487,2.4864,2.486,2.4855,2.4848,2.4842,2.4838,2.4832,2.4828,2.4827,2.4826,2.4826,2.4825,2.4834,2.4836,2.4826,2.4826,2.4826,2.4826,2.4826,2.4826,2.4885,2.4878,2.4878,2.4869,2.4867,2.4861,2.4859,2.4856,2.4853,2.4845,2.484,2.4838,2.4834,2.4827,2.4822,2.4821,2.4818,2.4817,2.4816,2.4824,2.4825,2.4826,2.4828,2.4816,2.4816,2.4808,2.4808,2.4808]}]]